Starlink 1548

operational
NORAD ID: 46054 Int'l Des: 2020-055 Owner: SPXS Country: US Constellation: starlink
LEOCIRCULARSTARLINK_TYPE

Über Starlink 1548

Beschreibung wird geladen...

Live-Position

3D-Globus wird geladen...

Nächste Überflüge

Höhenverlauf

Altitude vs Time

uPlot chart will show altitude changes over time

Zweizeiliger Elementsatz

1 46054U 20055AD 26036.91650355 .00000024 00000-0 20504-4 0 9993
2 46054 53.0540 259.2518 0001134 82.5760 277.5358 15.06385775304244
Epoch: 5. Feb. 2026 • Age: 8 hours

Aktueller Status

Höhe 552.4 km
Geschwindigkeit 7.59 km/s
Subsatellitenpunkt 50.66°N, 92.81°E
Startdatum 7. Aug. 2020
Alter 5.5 years
Typ internet

Technische Details

Klassifizierung Payload
Masse 260.00 kg
Trockenmasse 248.00 kg
Gesamtmasse 260.00 kg
Länge 0.20 m
Durchmesser 2.80 m
Spannweite 9.00 m
Form Box + pan
Hersteller SPXS
Bus-Typ Starlink
Phasenstatus In Orbit
Besitzer/Staat SPXS/US

Große Konstellationen

Loading constellations...